Wind_Speed
23 24 19 14 17 6 6 8 7 7 9 12 13 13 15 18 19 26 30 33 37 41 46 48 50 50 52 54 56 58 61 65 65 62 62 64 68 66 69 69 70 71 70 70 70 70 71 70 70
24 27 22 12 8 3 2 12 14 10 11 12 10 12 14 17 26 29 31 31 33 35 38 43 46 51 54 55 59 62 63 65 66 67 66 67 68 69 69 71 70 71 70 71 71 71 72 71 71
27 26 22 8 11 9 2 10 21 18 15 12 15 13 17 23 27 24 25 30 29 30 32 35 38 41 45 48 50 51 54 56 56 58 58 59 62 65 63 61 65 64 64 65 66 69 68 67 67
19 22 20 18 11 3 13 8 12 17 9 7 9 13 19 20 22 25 22 23 24 27 28 30 33 34 37 39 42 44 46 48 52 54 55 57 59 61 65 64 64 65 66 65 63 64 63 65 69
20 20 18 21 14 12 18 16 15 15 7 8 14 16 22 22 21 20 23 23 25 27 29 30 33 36 40 41 43 47 49 52 54 56 57 59 63 67 69 72 72 73 73 73 73 72 75 75 72
18 20 22 18 16 15 14 9 11 10 5 10 14 16 18 19 19 18 20 23 27 30 34 38 41 44 45 48 53 54 56 58 59 62 64 67 69 73 76 78 79 81 81 82 83 84 85 83 83
21 19 21 18 9 8 6 1 4 14 18 19 17 17 18 21 23 25 24 25 26 28 30 33 36 40 43 47 50 52 56 61 65 67 68 74 76 73 75 77 80 83 86 91 92 94 89 89 88
15 22 23 13 3 6 3 6 5 10 16 17 17 20 22 22 25 25 26 28 31 33 35 37 39 42 46 48 51 53 56 59 62 65 67 71 75 76 79 80 83 87 91 94 95 95 96 95 93
19 23 14 7 3 5 4 6 13 14 14 13 14 17 19 23 25 25 26 29 30 32 34 39 41 45 48 51 55 58 60 59 60 62 65 69 70 72 75 78 81 84 88 90 93 97 99 97 97
17 22 13 9 8 6 4 1 11 15 15 16 17 20 20 23 26 25 24 25 29 32 34 36 40 43 44 46 48 52 55 57 58 58 62 64 66 68 69 71 73 77 84 89 93 95 96 99 100
15 13 10 5 7 6 2 7 12 14 11 11 16 19 22 27 28 30 30 31 34 36 39 37 35 39 44 46 47 51 56 57 57 57 56 57 58 60 62 64 68 72 81 89 94 96 98 100 101
15 15 13 4 6 2 2 5 8 11 8 9 15 18 21 26 33 34 34 36 41 43 43 44 40 45 49 49 47 47 48 48 47 49 49 49 51 53 53 54 57 64 68 77 88 94 96 97 101
18 15 14 7 7 5 1 4 8 13 10 11 12 16 21 26 30 31 32 34 40 46 47 51 47 49 53 54 49 45 44 42 43 46 48 49 50 51 50 53 56 61 60 60 64 72 80 88 94
8 12 12 13 11 7 3 3 5 15 16 16 15 19 22 24 26 29 33 34 41 43 47 48 56 61 61 58 51 47 44 44 44 46 48 52 52 52 53 55 56 59 57 51 51 56 63 70 75
10 17 17 19 7 5 6 0 7 12 14 16 18 18 21 26 28 31 37 39 44 45 49 49 54 61 68 63 53 48 45 45 46 47 49 51 52 52 54 56 57 60 60 50 43 47 52 56 61
11 20 17 12 14 9 2 7 12 12 18 18 20 22 20 27 32 34 39 44 47 46 48 51 55 62 66 67 62 56 49 49 49 50 50 51 52 53 54 56 57 60 63 58 43 40 41 48 54
9 17 16 19 18 22 12 13 16 14 17 25 21 27 24 29 34 37 40 45 50 50 50 53 56 60 64 67 68 61 55 52 53 54 53 53 53 53 54 55 58 61 65 63 50 39 37 40 49
11 18 27 26 16 23 13 8 13 18 18 25 24 25 25 30 36 39 44 46 51 53 52 54 56 59 64 68 67 67 62 63 60 59 55 53 53 53 53 55 57 62 66 68 59 42 35 38 43
15 19 22 15 17 21 13 13 11 22 20 28 27 24 25 32 35 37 42 44 49 52 52 54 53 57 64 67 68 65 68 68 69 71 70 64 57 55 53 55 55 59 64 68 66 51 42 40 40
17 19 18 17 21 20 18 12 18 18 23 21 22 28 28 29 29 36 39 41 48 52 53 55 54 55 62 66 69 71 68 70 73 77 79 78 67 59 55 54 56 58 63 67 68 58 46 41 40
20 19 21 22 24 23 22 22 23 26 28 29 35 35 28 36 30 35 42 43 47 51 52 57 57 56 61 64 68 71 72 72 75 77 78 82 82 70 61 56 57 59 64 69 71 66 52 46 41
33 26 22 24 28 25 26 30 27 31 32 32 28 24 24 31 36 39 42 43 48 51 52 55 59 58 63 63 68 70 71 74 75 79 82 81 85 89 69 61 55 58 62 70 73 73 59 50 44
38 35 31 27 28 26 23 25 29 27 25 20 25 27 29 32 30 34 40 45 49 52 53 55 57 59 60 64 65 71 74 75 75 78 80 85 86 88 85 65 59 58 62 68 73 74 63 52 45
36 37 35 30 29 28 22 19 28 22 24 25 19 24 24 27 31 35 44 46 50 52 54 54 56 58 59 63 65 68 73 75 73 77 78 80 84 88 90 73 63 58 60 66 73 74 69 54 46
34 34 34 36 36 32 26 22 24 24 15 19 15 27 25 26 29 38 48 50 50 52 55 55 57 56 60 61 67 69 70 74 75 78 77 81 80 85 90 88 65 58 60 64 70 74 72 56 48
37 35 40 45 38 34 31 25 26 33 28 22 21 23 18 33 38 50 46 50 52 51 55 56 56 55 60 59 64 66 68 70 74 78 75 78 82 82 89 91 70 58 57 61 67 72 73 60 49
38 37 43 40 40 34 28 27 23 28 28 27 29 20 20 30 43 43 50 54 51 54 55 56 55 56 57 58 62 64 66 70 72 75 74 77 79 82 87 88 76 59 55 59 64 70 72 65 53
37 35 36 37 36 33 28 22 24 28 33 32 29 33 34 29 37 40 51 55 53 56 54 54 53 57 55 59 61 63 66 69 72 73 73 74 78 81 87 87 81 59 54 56 60 65 69 69 54
43 41 42 40 41 38 36 27 30 30 35 38 38 37 39 35 44 48 50 50 51 53 52 51 51 56 55 57 61 65 66 66 69 71 73 73 79 80 86 87 82 61 54 54 58 62 65 67 59
38 41 46 45 45 39 34 25 28 29 32 39 42 40 42 47 51 48 50 48 49 47 46 47 49 52 53 56 60 62 64 67 72 74 73 75 78 78 84 85 81 61 52 52 55 59 62 64 63
Wind_Direction
137 127 105 121 133 90 141 273 306 307 269 233 246 248 258 269 275 274 273 269 265 264 260 258 259 258 257 260 262 261 261 263 269 270 266 262 263 265 265 267 265 264 264 265 265 265 265 263 263
128 136 116 103 131 181 234 250 273 307 272 255 247 247 264 299 299 288 278 273 269 271 268 266 264 264 265 265 264 266 265 265 267 268 270 269 271 270 268 267 266 267 267 268 267 266 265 263 264
147 129 127 140 146 138 69 268 259 282 278 259 243 265 296 311 302 300 296 283 279 276 275 274 273 272 272 272 272 272 274 273 271 272 271 269 269 268 268 265 264 263 262 264 265 265 265 262 260
151 138 137 135 163 209 294 293 278 256 268 322 319 310 305 301 305 304 300 289 280 279 280 285 285 284 291 286 282 281 278 278 274 269 269 268 270 271 269 270 268 265 264 264 266 265 264 265 262
162 149 169 172 192 263 292 286 274 261 270 298 346 321 307 308 308 308 309 305 296 295 295 294 295 296 294 295 290 286 283 280 279 278 279 277 276 274 274 272 271 267 267 267 271 270 271 269 265
170 171 174 188 216 271 291 285 249 231 36 27 12 357 347 333 331 327 322 317 312 305 301 301 302 300 301 298 293 290 286 283 283 283 282 280 283 282 282 280 275 274 269 267 270 271 273 270 265
167 190 191 209 235 261 240 70 103 79 43 26 13 13 9 0 357 352 348 338 327 318 311 305 297 295 292 287 287 286 285 283 281 282 283 279 280 279 277 274 272 271 271 269 269 269 267 265 264
164 178 179 155 256 127 105 56 34 58 35 16 14 17 16 9 355 350 348 339 332 326 319 313 309 304 299 294 291 292 291 289 287 286 284 281 280 280 279 278 277 276 273 269 266 265 264 262 261
159 168 164 141 166 75 42 30 59 57 44 14 10 11 16 5 357 344 344 346 337 332 324 315 310 306 304 301 298 296 293 291 288 288 286 284 283 281 280 279 277 275 272 270 269 268 264 261 260
180 184 196 161 168 141 116 295 43 57 34 16 12 14 12 1 1 355 345 345 352 351 343 332 323 313 308 306 305 303 300 299 297 293 289 287 286 285 284 283 280 279 276 271 267 265 263 263 261
208 181 188 196 175 111 4 53 45 46 30 3 5 11 4 0 1 359 357 354 354 356 354 341 333 329 323 314 309 304 304 302 301 299 295 292 290 289 289 288 286 288 283 278 273 267 264 260 258
205 183 174 175 214 73 58 83 58 49 38 8 1 8 1 356 360 360 357 352 351 351 349 349 343 343 341 332 317 309 306 306 306 303 301 299 300 296 292 293 296 302 296 283 276 272 267 261 257
215 190 165 174 201 217 345 351 35 27 6 9 359 358 357 359 4 360 355 349 347 349 353 353 350 347 345 339 334 323 319 318 316 315 314 313 309 307 305 306 310 312 305 290 277 271 266 261 256
228 195 174 173 195 204 202 210 27 20 356 340 338 353 1 352 352 350 352 353 352 355 353 355 358 356 353 348 341 331 327 323 322 319 318 317 317 317 318 318 318 321 320 305 287 276 269 265 261
207 188 192 179 180 227 237 161 35 14 355 345 326 334 342 341 346 348 350 354 356 357 355 356 359 358 0 356 347 338 333 329 327 324 324 322 322 322 322 323 326 330 331 322 298 286 276 268 263
201 199 191 182 198 207 226 345 321 339 343 340 330 331 335 344 344 347 350 354 357 356 355 358 358 358 3 2 1 353 343 337 334 331 329 328 328 326 327 327 331 335 338 335 318 299 285 270 263
216 195 229 211 227 230 270 283 302 312 335 332 333 329 338 343 344 346 350 355 356 356 355 352 356 358 360 1 2 0 354 347 342 337 333 332 330 330 331 332 334 339 342 341 331 313 301 283 268
216 223 226 241 263 233 244 245 285 307 324 323 323 330 340 345 343 344 353 356 355 353 353 350 354 356 358 2 2 3 2 360 356 348 341 335 334 332 334 335 338 341 344 346 339 322 308 295 282
194 230 225 232 240 270 253 273 292 289 322 315 307 316 336 340 337 344 351 354 355 349 350 349 352 352 355 358 1 0 1 2 1 2 358 351 341 336 336 336 340 342 345 348 345 332 316 308 291
225 228 226 255 267 282 250 251 268 300 301 300 284 305 308 314 334 337 345 353 352 350 351 349 348 353 352 354 359 358 2 2 3 3 2 1 354 342 339 337 339 343 346 349 348 340 325 317 302
230 232 246 259 251 253 248 260 289 284 297 292 292 292 299 302 322 329 343 349 351 351 350 350 347 347 350 351 355 355 357 359 1 3 2 4 4 353 345 341 340 344 346 349 351 347 335 326 317
238 233 237 256 248 254 259 263 269 293 301 303 295 293 277 298 293 315 336 344 349 349 349 350 348 345 345 347 351 353 354 355 356 359 2 3 1 2 351 346 342 343 347 350 352 350 342 335 327
236 238 246 247 249 253 253 257 265 286 293 303 297 306 294 291 291 313 330 340 343 347 348 348 346 348 347 348 348 351 352 353 354 357 359 0 0 360 1 350 346 345 349 351 352 352 348 341 334
240 238 242 248 248 242 241 257 262 272 292 284 291 291 275 272 287 299 326 333 338 340 342 343 343 344 344 347 349 349 350 350 349 351 353 358 357 359 360 354 349 346 349 351 352 354 352 345 340
239 246 241 244 248 256 264 274 268 259 275 262 314 304 284 261 292 305 318 326 332 333 335 340 341 339 344 347 347 348 348 348 347 348 349 354 356 356 357 357 350 348 349 351 352 355 355 349 345
249 259 247 248 252 257 261 268 271 257 272 266 310 298 304 257 289 303 316 326 331 328 329 336 338 337 345 345 345 345 343 344 344 346 347 349 352 355 356 355 352 348 348 350 353 356 357 352 349
247 248 248 255 255 257 265 260 280 262 256 257 280 282 284 280 283 311 312 316 325 329 327 333 336 336 341 342 339 341 341 342 342 344 347 347 350 353 354 355 354 349 348 351 354 356 358 357 353
236 246 250 250 258 263 269 254 251 258 275 278 273 282 289 279 302 302 304 308 319 327 325 330 332 335 335 337 335 339 341 341 341 342 346 346 348 350 352 354 355 350 347 350 354 357 360 1 357
242 252 243 251 258 259 266 261 257 255 266 275 273 277 288 267 298 300 303 309 320 326 324 327 325 334 335 333 333 337 337 340 338 338 343 345 346 349 351 353 354 351 347 350 354 357 1 3 2
253 247 245 248 253 256 255 260 253 258 268 272 277 279 278 275 292 294 301 313 318 324 327 333 330 332 332 334 333 335 338 336 333 337 340 342 346 347 350 351 352 351 349 350 353 356 0 4 6
Height
10933 10936 10938 10940 10941 10944 10946 10944 10946 10949 10950 10951 10951 10951 10952 10951 10951 10946 10945 10942 10941 10940 10940 10939 10937 10936 10933 10931 10929 10927 10925 10923 10920 10919 10918 10916 10915 10913 10911 10909 10907 10905 10904 10902 10901 10902 10903 10902 10900
10934 10936 10937 10939 10941 10943 10946 10945 10945 10948 10950 10949 10948 10947 10946 10946 10942 10940 10938 10937 10936 10934 10932 10930 10929 10927 10925 10922 10919 10917 10915 10913 10911 10908 10906 10904 10901 10899 10898 10896 10893 10892 10890 10888 10886 10886 10888 10889 10886
10936 10938 10939 10941 10941 10943 10945 10946 10944 10946 10946 10947 10945 10942 10942 10944 10938 10935 10932 10930 10929 10928 10926 10925 10923 10919 10917 10914 10912 10909 10906 10904 10900 10897 10893 10891 10890 10887 10885 10882 10879 10877 10875 10872 10872 10870 10871 10871 10871
10937 10938 10939 10941 10944 10944 10943 10943 10943 10944 10944 10944 10944 10941 10938 10941 10936 10932 10930 10927 10926 10923 10921 10919 10916 10914 10911 10908 10905 10902 10898 10894 10891 10887 10885 10883 10879 10874 10869 10866 10864 10863 10860 10859 10856 10854 10854 10855 10855
10940 10940 10940 10942 10942 10943 10940 10940 10940 10940 10942 10943 10940 10939 10935 10933 10933 10932 10926 10923 10920 10918 10915 10912 10909 10907 10904 10900 10896 10893 10890 10886 10881 10877 10875 10872 10866 10862 10857 10855 10851 10848 10845 10842 10841 10839 10838 10837 10837
10938 10940 10941 10944 10943 10942 10940 10939 10939 10940 10940 10940 10940 10939 10935 10928 10928 10927 10923 10920 10917 10914 10911 10907 10903 10899 10895 10890 10885 10881 10878 10875 10870 10867 10864 10857 10851 10846 10843 10840 10833 10830 10827 10825 10823 10820 10819 10818 10818
10936 10938 10940 10942 10943 10941 10941 10941 10940 10935 10936 10936 10936 10936 10935 10928 10926 10924 10922 10919 10915 10911 10906 10902 10898 10894 10890 10886 10879 10874 10869 10865 10862 10857 10852 10845 10837 10833 10828 10822 10815 10811 10807 10803 10800 10800 10799 10797 10797
10933 10937 10937 10938 10940 10941 10938 10937 10935 10934 10934 10935 10935 10934 10931 10928 10924 10920 10917 10913 10909 10904 10898 10893 10888 10882 10878 10874 10869 10864 10858 10854 10850 10844 10837 10829 10823 10817 10808 10804 10795 10787 10783 10778 10777 10775 10774 10776 10778
10934 10936 10935 10937 10939 10940 10937 10934 10934 10932 10933 10932 10929 10929 10929 10926 10921 10917 10914 10910 10906 10902 10896 10889 10884 10878 10871 10865 10859 10851 10845 10843 10839 10833 10821 10813 10808 10798 10791 10783 10775 10765 10758 10755 10750 10747 10746 10749 10749
10934 10934 10934 10935 10937 10938 10938 10936 10934 10931 10930 10928 10927 10926 10926 10926 10922 10916 10915 10912 10906 10902 10896 10887 10879 10873 10867 10860 10854 10843 10834 10825 10821 10818 10806 10797 10790 10780 10773 10765 10754 10746 10735 10729 10725 10721 10719 10718 10720
10931 10934 10934 10934 10936 10936 10935 10933 10931 10929 10930 10929 10926 10925 10922 10919 10919 10918 10912 10905 10901 10898 10893 10887 10879 10870 10860 10852 10845 10835 10822 10814 10807 10797 10791 10783 10775 10767 10757 10745 10735 10723 10709 10699 10692 10692 10692 10691 10690
10928 10932 10933 10933 10933 10932 10933 10933 10933 10933 10933 10931 10928 10925 10921 10917 10909 10902 10897 10895 10892 10891 10887 10880 10873 10864 10853 10843 10834 10825 10815 10806 10795 10786 10778 10770 10763 10753 10742 10730 10720 10705 10687 10673 10662 10658 10657 10659 10660
10925 10928 10933 10934 10933 10932 10929 10929 10930 10930 10932 10929 10927 10925 10921 10915 10909 10904 10901 10895 10890 10882 10874 10869 10865 10858 10847 10834 10822 10811 10803 10794 10785 10774 10764 10756 10748 10737 10726 10713 10700 10686 10668 10649 10636 10628 10623 10622 10628
10925 10928 10930 10931 10932 10932 10931 10929 10925 10924 10925 10926 10923 10921 10917 10917 10916 10911 10907 10900 10890 10880 10873 10865 10856 10845 10834 10822 10810 10800 10793 10784 10775 10765 10755 10745 10734 10722 10710 10698 10684 10668 10649 10631 10617 10608 10601 10598 10601
10923 10924 10927 10930 10931 10928 10929 10928 10925 10924 10923 10923 10922 10919 10918 10914 10913 10908 10903 10896 10886 10877 10869 10860 10852 10842 10830 10816 10804 10794 10786 10776 10767 10755 10746 10734 10721 10709 10697 10684 10669 10651 10632 10615 10602 10593 10585 10581 10580
10920 10922 10924 10925 10925 10927 10926 10925 10924 10925 10924 10920 10918 10917 10913 10908 10904 10899 10892 10887 10880 10872 10864 10855 10846 10837 10826 10814 10801 10790 10780 10769 10758 10747 10737 10724 10710 10697 10684 10671 10656 10639 10620 10601 10587 10577 10571 10566 10563
10917 10920 10922 10921 10924 10922 10921 10922 10920 10920 10919 10916 10913 10908 10903 10897 10893 10888 10882 10878 10873 10866 10858 10850 10843 10833 10821 10810 10796 10785 10773 10762 10750 10738 10726 10713 10700 10686 10672 10658 10643 10627 10609 10592 10576 10565 10557 10551 10547
10916 10918 10917 10918 10919 10918 10918 10918 10917 10915 10916 10912 10908 10902 10897 10890 10885 10879 10871 10864 10859 10855 10850 10843 10835 10828 10816 10805 10793 10780 10769 10758 10744 10731 10717 10703 10689 10674 10660 10646 10632 10616 10599 10581 10565 10554 10547 10538 10532
10911 10913 10914 10913 10914 10914 10913 10913 10915 10912 10910 10907 10901 10897 10893 10887 10883 10876 10868 10862 10859 10854 10846 10840 10831 10821 10811 10800 10790 10778 10765 10752 10738 10724 10709 10693 10676 10660 10648 10636 10623 10610 10594 10576 10557 10542 10533 10527 10520
10908 10909 10911 10909 10909 10910 10910 10911 10913 10911 10906 10903 10897 10893 10889 10886 10881 10876 10869 10863 10860 10853 10843 10835 10827 10817 10806 10793 10783 10771 10758 10746 10732 10715 10699 10683 10668 10651 10636 10624 10613 10600 10586 10570 10552 10534 10520 10514 10505
10905 10906 10906 10906 10905 10907 10908 10906 10905 10905 10902 10899 10895 10892 10888 10884 10879 10874 10866 10859 10855 10848 10840 10831 10821 10811 10802 10790 10776 10767 10755 10742 10728 10715 10697 10680 10663 10645 10628 10614 10601 10589 10575 10560 10541 10524 10510 10497 10489
10900 10899 10903 10902 10902 10904 10905 10904 10903 10898 10897 10896 10892 10888 10884 10883 10877 10871 10863 10855 10849 10843 10835 10824 10817 10807 10797 10786 10776 10763 10750 10737 10722 10706 10691 10674 10658 10642 10624 10610 10597 10584 10569 10551 10533 10515 10498 10485 10473
10891 10895 10893 10897 10899 10899 10899 10901 10900 10897 10894 10892 10888 10882 10881 10877 10871 10868 10858 10848 10842 10837 10831 10821 10813 10806 10794 10783 10770 10756 10743 10729 10716 10700 10686 10671 10656 10640 10623 10604 10590 10577 10561 10545 10529 10510 10492 10478 10465
10884 10886 10888 10889 10894 10896 10896 10898 10896 10893 10890 10886 10883 10879 10874 10870 10866 10862 10853 10844 10835 10832 10828 10819 10811 10801 10792 10778 10765 10752 10740 10727 10712 10699 10684 10669 10653 10636 10617 10599 10584 10570 10556 10541 10525 10507 10488 10473 10460
10876 10879 10880 10881 10886 10888 10892 10893 10891 10888 10885 10880 10875 10873 10868 10862 10861 10857 10848 10841 10832 10828 10822 10815 10807 10796 10786 10771 10758 10747 10736 10723 10710 10696 10682 10666 10650 10633 10616 10597 10579 10564 10550 10537 10523 10504 10486 10469 10456
10871 10873 10872 10872 10877 10881 10886 10886 10882 10879 10877 10875 10869 10869 10868 10860 10855 10852 10846 10839 10832 10825 10816 10809 10802 10790 10780 10768 10756 10746 10735 10723 10708 10693 10678 10663 10647 10630 10613 10594 10574 10561 10549 10535 10520 10503 10484 10467 10453
10866 10865 10863 10867 10868 10873 10878 10880 10879 10872 10868 10871 10866 10865 10863 10858 10853 10847 10844 10837 10830 10822 10810 10802 10796 10784 10775 10766 10755 10746 10734 10720 10705 10689 10673 10659 10643 10627 10611 10593 10573 10558 10546 10533 10519 10502 10485 10467 10452
10857 10858 10861 10860 10863 10867 10870 10874 10873 10868 10863 10862 10860 10858 10857 10852 10847 10844 10841 10834 10827 10816 10806 10798 10792 10783 10774 10765 10754 10741 10729 10715 10700 10684 10670 10656 10641 10624 10607 10590 10572 10555 10543 10531 10518 10504 10487 10469 10452
10847 10852 10852 10853 10857 10861 10865 10868 10866 10863 10860 10856 10854 10853 10850 10843 10840 10838 10836 10828 10820 10812 10803 10796 10790 10781 10772 10760 10747 10736 10724 10711 10696 10681 10666 10651 10635 10619 10602 10585 10568 10553 10540 10529 10516 10503 10489 10473 10456
10841 10843 10845 10848 10850 10853 10857 10860 10860 10858 10856 10851 10848 10847 10845 10839 10833 10830 10827 10820 10814 10807 10801 10794 10786 10776 10764 10753 10742 10732 10721 10708 10693 10678 10663 10648 10632 10616 10598 10581 10566 10551 10539 10528 10516 10502 10489 10475 10460